KE9LZ-9 Weather Reports


time (UTC)temp
F
wind
direction
speed
knots
gust
knots
rain 1hr
in
rain 24hr
in
rain mn
in
humidity
%
barometer
mb
20260510143003 44 294 2.6 8.7 0.00 0.00 0.00 59 1016.8
20260510142004 43 356 2.6 5.2 0.00 0.00 0.00 61 1016.5
20260510141004 42 326 1.7 4.3 0.00 0.00 0.00 64 1016.8
20260510140004 41 294 2.6 5.2 0.00 0.00 0.00 65 1016.6
20260510135004 42 301 2.6 5.2 0.00 0.00 0.00 65 1016.5
20260510133004 40 313 0.9 2.6 0.00 0.00 0.00 67 1016.6
20260510131004 40 339 2.6 6.1 0.00 0.00 0.00 66 1016.4
20260510130004 40 283 0.9 4.3 0.00 0.00 0.00 67 1016.3
20260510125004 40 298 0.9 2.6 0.00 0.00 0.00 67 1016.3
20260510121003 37 280 1.7 4.3 0.00 0.00 0.00 72 1016.0
20260510120004 33 53 0.0 1.7 0.00 0.00 0.00 78 1015.9
20260510115004 32 312 0.9 1.7 0.00 0.00 0.00 80 1015.8
20260510114003 30 290 0.9 1.7 0.00 0.00 0.00 83 1015.9
20260510113004 28 304 0.9 1.7 0.00 0.00 0.00 85 1015.7
20260510112004 27 344 0.9 0.9 0.00 0.00 0.00 86 1015.6
20260510111004 27 338 0.0 0.9 0.00 0.00 0.00 86 1015.6
20260510105003 27 325 0.9 1.7 0.00 0.00 0.00 86 1015.4
20260510104004 27 297 0.0 0.9 0.00 0.00 0.00 85 1015.5
20260510103004 27 318 0.0 0.9 0.00 0.00 0.00 84 1015.1
20260510102003 28 309 0.0 0.9 0.00 0.00 0.00 83 1015.1
20260510101004 28 304 0.0 1.7 0.00 0.00 0.00 82 1015.0
20260510094004 27 311 0.0 0.9 0.00 0.00 0.00 82 1014.8
20260510093004 28 270 0.9 1.7 0.00 0.00 0.00 79 1014.6
20260510092003 30 295 0.9 1.7 0.00 0.00 0.00 78 1014.7
20260510091003 29 289 0.9 1.7 0.00 0.00 0.00 78 1014.5
20260510085004 31 298 0.0 1.7 0.00 0.00 0.00 75 1014.4
20260510084003 32 308 0.9 2.6 0.00 0.00 0.00 73 1014.4
20260510083004 31 308 0.9 1.7 0.00 0.00 0.00 73 1014.2
20260510082004 31 296 0.9 1.7 0.00 0.00 0.00 75 1014.1
20260510080004 30 299 0.9 1.7 0.00 0.00 0.00 74 1014.0
20260510075003 31 335 0.9 1.7 0.00 0.00 0.00 72 1014.0
20260510074004 32 337 0.9 1.7 0.00 0.00 0.00 72 1013.7
20260510072004 31 340 0.9 1.7 0.00 0.00 0.00 71 1013.6
20260510071004 33 328 0.9 2.6 0.00 0.00 0.00 68 1013.4
20260510070004 32 277 0.9 2.6 0.00 0.00 0.00 70 1013.4
20260510065004 31 44 0.0 4.3 0.00 0.00 0.00 69 1013.5
20260510064004 30 357 0.9 1.7 0.00 0.00 0.00 74 1013.2
20260510063003 29 327 0.9 1.7 0.00 0.00 0.00 71 1013.3
20260510062004 29 291 0.0 1.7 0.00 0.00 0.00 71 1013.2
20260510060004 30 303 0.0 0.9 0.00 0.00 0.00 68 1012.9
20260510055004 30 312 0.9 1.7 0.00 0.00 0.00 68 1013.0
20260510054004 31 321 0.9 0.9 0.00 0.00 0.00 67 1012.9
20260510053004 30 327 0.0 1.7 0.00 0.00 0.00 67 1012.7
20260510052003 31 0 0.0 0.9 0.00 0.00 0.00 66 1012.7
20260510051005 31 16 0.0 1.7 0.00 0.00 0.00 65 1012.8
20260510050004 32 287 0.0 1.7 0.00 0.00 0.00 63 1012.7
20260510045004 32 310 0.0 0.9 0.00 0.00 0.00 62 1012.7
20260510043004 34 6 0.9 1.7 0.00 0.00 0.00 60 1012.7
20260510042005 34 334 0.0 0.9 0.00 0.00 0.00 58 1012.5
20260510041004 35 2 0.0 0.9 0.00 0.00 0.00 57 1012.4
20260510040004 36 340 0.0 0.9 0.00 0.00 0.00 55 1012.3
20260510035003 37 346 0.0 0.9 0.00 0.00 0.00 54 1012.4
20260510034003 38 317 0.0 1.7 0.00 0.00 0.00 52 1012.4
20260510032004 36 29 0.9 1.7 0.00 0.00 0.00 54 1012.0
20260510031004 36 16 0.9 1.7 0.00 0.00 0.00 56 1012.0
20260510030004 37 327 0.9 1.7 0.00 0.00 0.00 53 1012.0
20260510025004 38 348 0.0 1.7 0.00 0.00 0.00 52 1012.0
20260510024004 38 2 0.0 1.7 0.00 0.00 0.00 51 1011.6
20260510023004 39 44 0.0 0.9 0.00 0.00 0.00 49 1011.7
20260510022004 40 317 0.0 1.7 0.00 0.00 0.00 47 1011.7
20260510021004 41 336 0.0 0.9 0.00 0.00 0.00 46 1011.4
20260510020004 42 0 0.9 1.7 0.00 0.00 0.00 44 1011.5
20260510015004 43 28 0.9 1.7 0.00 0.00 0.00 43 1011.0
20260510014004 44 28 0.9 4.3 0.00 0.00 0.00 42 1011.1
20260510013006 46 3 0.9 6.1 0.00 0.00 0.00 40 1010.6
20260510012004 46 300 2.6 6.1 0.00 0.00 0.00 39 1010.7
20260510005004 48 51 1.7 13.9 0.00 0.00 0.00 38 1010.3
20260510004004 48 306 2.6 10.4 0.00 0.00 0.00 39 1009.9
20260510003004 48 331 6.1 13.9 0.00 0.00 0.00 38 1010.0
20260510002003 49 309 7.0 17.4 0.00 0.00 0.00 39 1009.6
20260510001004 50 352 5.2 14.8 0.00 0.00 0.00 38 1009.5
20260510000004 52 27 3.5 14.8 0.00 0.00 0.00 39 1009.5
20260509235004 51 339 3.5 8.7 0.00 0.00 0.00 40 1009.1
20260509233004 51 350 2.6 10.4 0.00 0.00 0.00 40 1008.4
20260509232004 51 3 3.5 8.7 0.00 0.00 0.00 38 1008.1
20260509231003 52 14 2.6 6.1 0.00 0.00 0.00 39 1008.0
20260509230003 52 356 1.7 10.4 0.00 0.00 0.00 38 1007.7
20260509225003 54 322 4.3 13.0 0.00 0.00 0.00 35 1007.6
20260509224005 56 317 4.3 8.7 0.00 0.00 0.00 33 1007.5
20260509223004 55 324 2.6 13.0 0.00 0.00 0.00 34 1007.1
20260509222004 55 322 3.5 19.1 0.00 0.00 0.00 33 1006.9
20260509221003 56 341 4.3 15.6 0.00 0.00 0.00 32 1006.9
20260509215004 57 13 3.5 18.2 0.00 0.00 0.00 32 1006.5
20260509213004 57 10 2.6 8.7 0.00 0.00 0.00 31 1005.9
20260509212004 57 348 5.2 14.8 0.00 0.00 0.00 30 1005.7
20260509211003 57 0 4.3 13.9 0.00 0.00 0.00 29 1005.5
20260509210004 59 319 5.2 11.3 0.00 0.00 0.00 29 1005.4
20260509203004 57 309 5.2 13.9 0.00 0.00 0.00 30 1005.0
20260509202004 58 325 5.2 21.7 0.00 0.00 0.00 30 1004.9
20260509201004 60 347 2.6 12.2 0.00 0.00 0.00 28 1004.5
20260509200004 58 353 4.3 20.0 0.00 0.00 0.00 29 1004.5
20260509195004 58 281 9.6 13.9 0.00 0.00 0.00 28 1003.9
20260509194003 57 323 5.2 13.0 0.00 0.00 0.00 30 1004.1
20260509193004 57 323 3.5 13.9 0.00 0.00 0.00 29 1003.7
20260509192004 57 291 6.1 18.2 0.00 0.00 0.00 30 1003.5
20260509191004 59 324 7.0 13.9 0.00 0.00 0.00 29 1003.5
20260509190004 56 354 6.1 14.8 0.00 0.00 0.00 31 1003.4
20260509185004 57 308 4.3 13.9 0.00 0.00 0.00 30 1003.2
20260509181004 58 327 2.6 11.3 0.00 0.00 0.00 32 1002.7
20260509180004 56 331 2.6 12.2 0.00 0.00 0.00 34 1002.9
20260509175003 59 355 1.7 15.6 0.00 0.00 0.00 31 1002.6
20260509174004 57 294 7.8 13.9 0.00 0.00 0.00 32 1002.8
20260509173003 57 282 2.6 13.0 0.00 0.00 0.00 32 1002.3
20260509172003 58 330 4.3 11.3 0.00 0.00 0.00 31 1002.1
20260509171004 57 299 2.6 14.8 0.00 0.00 0.00 32 1002.2
20260509165004 58 345 2.6 7.8 0.00 0.00 0.00 31 1001.8
20260509164004 55 337 4.3 10.4 0.00 0.00 0.00 34 1001.8
20260509163004 56 305 1.7 13.0 0.00 0.00 0.00 33 1001.8
20260509162003 55 341 4.3 13.9 0.00 0.00 0.00 34 1001.7
20260509161004 55 297 5.2 10.4 0.00 0.00 0.00 34 1001.5
20260509160003 55 355 1.7 14.8 0.00 0.00 0.00 35 1001.6
20260509155004 56 285 2.6 8.7 0.00 0.00 0.00 34 1001.3
20260509154004 56 274 6.1 18.2 0.00 0.00 0.00 33 1001.2
20260509153004 57 288 4.3 8.7 0.00 0.00 0.00 32 1000.9
20260509152004 57 303 3.5 14.8 0.00 0.00 0.00 31 1000.7
20260509151004 57 297 3.5 8.7 0.00 0.00 0.00 33 1000.5
20260509150004 56 323 3.5 12.2 0.00 0.00 0.00 34 1000.5
20260509145003 56 293 3.5 14.8 0.00 0.00 0.00 35 1000.8
20260509144004 55 288 2.6 11.3 0.00 0.00 0.00 36 1000.9